Weather History for Lancaster, TX

Change the Weather History Date:

Friday, June 1, 2012

  Actual Average (KRBD) Record (KRBD)
Temperature  
Mean Temperature 70 °F -  
Max Temperature 86 °F 85 °F 100 °F (1998)
Min Temperature 55 °F 67 °F 60 °F (2001)
Cooling Degree Days 6    
Growing Degree Days 20 (Base 50)    
Moisture  
Dew Point 51 °F    
Average Humidity 54    
Maximum Humidity 94    
Minimum Humidity 29    
Precipitation  
Precipitation 0.00 in - - ()
Sea Level Pressure  
Sea Level Pressure 29.98 in    
Wind  
Wind Speed 5 mph (ENE)    
Max Wind Speed 8 mph    
Max Gust Speed -    
Visibility 10 miles    
Events      
Averages and records for this station are not official NWS values.
T = Trace of Precipitation, MM = Missing Value Source: NWS Daily Summary

Daily Weather History Graph

Daily Weather History Graph

Search for Another Location

Airport:

Trip Planner

Search our weather history database for the weather conditions in past years. The results will help you decide how hot, cold, wet, or windy it might be!

Date:

Astronomy

Jun. 01, 2012 Rise Set
Actual Time 6:20 AM CDT 8:29 PM CDT
Civil Twilight 5:51 AM CDT 8:57 PM CDT
Nautical Twilight 5:17 AM CDT 9:32 PM CDT
Astronomical Twilight 4:40 AM CDT 10:09 PM CDT
Moon 5:39 PM CDT 3:48 AM CDT
Length of Visible Light 15h 05m
Length of Day
14h 09m
Waxing Gibbous, 89% of the Moon is Illuminated
Jun 1
Waxing Gibbous
Jun 4
Full
Jun 11
Last Quarter
Jun 19
New
Jun 26
First Quarter

Hourly Weather History & Observations

Time (CDT) Temp. Dew Point Humidity Pressure Visibility Wind Dir Wind Speed Gust Speed Precip Events Conditions
12:15 AM 69.8 °F 50.0 °F 49% 29.98 in 10.0 mi NNE 8.1 mph - N/A   Clear
12:35 AM 69.8 °F 50.0 °F 49% 29.99 in 10.0 mi NNE 8.1 mph - N/A   Clear
12:55 AM 68.0 °F 50.0 °F 52% 29.99 in 10.0 mi NNE 6.9 mph - N/A   Clear
1:15 AM 66.2 °F 50.0 °F 56% 30.00 in 10.0 mi North 5.8 mph - N/A   Clear
1:35 AM 64.4 °F 50.0 °F 59% 29.99 in 10.0 mi North 4.6 mph - N/A   Clear
1:55 AM 62.6 °F 51.8 °F 68% 29.99 in 10.0 mi North 3.5 mph - N/A   Clear
2:15 AM 62.6 °F 53.6 °F 72% 29.98 in 10.0 mi Calm Calm - N/A   Clear
2:35 AM 62.6 °F 53.6 °F 72% 29.98 in 10.0 mi North 3.5 mph - N/A   Clear
2:55 AM 60.8 °F 53.6 °F 77% 29.99 in 10.0 mi Calm Calm - N/A   Clear
3:15 AM 59.0 °F 53.6 °F 82% 30.00 in 10.0 mi Calm Calm - N/A   Clear
3:35 AM 57.2 °F 53.6 °F 88% 30.00 in 10.0 mi Calm Calm - N/A   Clear
3:55 AM 55.4 °F 53.6 °F 94% 29.99 in 10.0 mi Calm Calm - N/A   Clear
4:15 AM 57.2 °F 53.6 °F 88% 29.99 in 10.0 mi NNW 3.5 mph - N/A   Clear
4:35 AM 55.4 °F 53.6 °F 94% 29.99 in 10.0 mi NNW 3.5 mph - N/A   Clear
4:55 AM 57.2 °F 53.6 °F 88% 30.00 in 10.0 mi NNW 5.8 mph - N/A   Clear
5:15 AM 55.4 °F 53.6 °F 94% 30.00 in 10.0 mi NNW 4.6 mph - N/A   Clear
5:35 AM 55.4 °F 53.6 °F 94% 30.01 in 10.0 mi NNW 4.6 mph - N/A   Clear
5:55 AM 55.4 °F 53.6 °F 94% 30.00 in 10.0 mi Calm Calm - N/A   Clear
6:15 AM 55.4 °F 53.6 °F 94% 30.01 in 10.0 mi NNW 4.6 mph - N/A   Clear
6:35 AM 55.4 °F 53.6 °F 94% 30.02 in 10.0 mi NNW 5.8 mph - N/A   Clear
6:55 AM 55.4 °F 53.6 °F 94% 30.02 in 10.0 mi North 4.6 mph - N/A   Clear
7:15 AM 59.0 °F 53.6 °F 82% 30.04 in 10.0 mi NNW 3.5 mph - N/A   Clear
7:35 AM 60.8 °F 53.6 °F 77% 30.03 in 10.0 mi North 4.6 mph - N/A   Clear
7:55 AM 62.6 °F 53.6 °F 72% 30.01 in 10.0 mi NE 5.8 mph - N/A   Clear
8:15 AM 64.4 °F 53.6 °F 68% 30.02 in 10.0 mi NE 5.8 mph - N/A   Clear
8:35 AM 68.0 °F 53.6 °F 60% 30.03 in 10.0 mi NE 8.1 mph - N/A   Clear
8:55 AM 68.0 °F 51.8 °F 56% 30.03 in 10.0 mi NE 6.9 mph - N/A   Clear
9:15 AM 69.8 °F 51.8 °F 53% 30.03 in 10.0 mi ENE 8.1 mph - N/A   Clear
9:35 AM 71.6 °F 50.0 °F 46% 30.02 in 10.0 mi ENE 8.1 mph - N/A   Clear
9:55 AM 71.6 °F 50.0 °F 46% 30.02 in 10.0 mi NE 6.9 mph - N/A   Clear
10:15 AM 73.4 °F 50.0 °F 44% 30.03 in 10.0 mi ENE 8.1 mph - N/A   Clear
10:35 AM 73.4 °F 50.0 °F 44% 30.03 in 10.0 mi NE 6.9 mph - N/A   Clear
10:55 AM 73.4 °F 48.2 °F 41% 30.03 in 10.0 mi East 4.6 mph - N/A   Clear
11:15 AM 73.4 °F 48.2 °F 41% 30.04 in 10.0 mi ENE 5.8 mph - N/A   Clear
11:35 AM 75.2 °F 46.4 °F 36% 30.05 in 10.0 mi NE 4.6 mph - N/A   Clear
11:55 AM 77.0 °F 46.4 °F 34% 30.04 in 10.0 mi East 4.6 mph - N/A   Clear
12:15 PM 77.0 °F 46.4 °F 34% 30.03 in 10.0 mi East 4.6 mph - N/A   Clear
12:35 PM 77.0 °F 46.4 °F 34% 30.02 in 10.0 mi NE 4.6 mph - N/A   Clear
12:55 PM 78.8 °F 46.4 °F 32% 30.01 in 10.0 mi ESE 5.8 mph - N/A   Clear
1:15 PM 78.8 °F 46.4 °F 32% 30.01 in 10.0 mi Calm Calm - N/A   Clear
1:35 PM 78.8 °F 46.4 °F 32% 30.00 in 10.0 mi East 5.8 mph - N/A   Clear
1:55 PM 80.6 °F 48.2 °F 32% 29.99 in 10.0 mi SSE 3.5 mph - N/A   Clear
2:15 PM 80.6 °F 48.2 °F 32% 29.99 in 10.0 mi SSE 4.6 mph - N/A   Clear
2:35 PM 82.4 °F 48.2 °F 30% 29.99 in 10.0 mi ENE 5.8 mph - N/A   Clear
2:55 PM 82.4 °F 50.0 °F 32% 29.99 in 10.0 mi Calm Calm - N/A   Clear
3:15 PM 82.4 °F 48.2 °F 30% 29.98 in 10.0 mi NNW 3.5 mph - N/A   Clear
3:35 PM 82.4 °F 50.0 °F 32% 29.97 in 10.0 mi SSE 5.8 mph - N/A   Clear
3:55 PM 84.2 °F 50.0 °F 30% 29.95 in 10.0 mi South 5.8 mph - N/A   Clear
4:15 PM 84.2 °F 50.0 °F 30% 29.95 in 10.0 mi SSE 3.5 mph - N/A   Clear
4:35 PM 84.2 °F 50.0 °F 30% 29.93 in 10.0 mi SE 6.9 mph - N/A   Clear
4:55 PM 86.0 °F 50.0 °F 29% 29.93 in 10.0 mi East 8.1 mph - N/A   Clear
5:15 PM 86.0 °F 50.0 °F 29% 29.92 in 10.0 mi East 5.8 mph - N/A   Clear
5:35 PM 86.0 °F 50.0 °F 29% 29.92 in 10.0 mi NE 5.8 mph - N/A   Clear
5:55 PM 86.0 °F 50.0 °F 29% 29.92 in 10.0 mi NE 6.9 mph - N/A   Clear
6:15 PM 84.2 °F 50.0 °F 30% 29.91 in 10.0 mi East 8.1 mph - N/A   Clear
6:35 PM 84.2 °F 48.2 °F 29% 29.90 in 10.0 mi ESE 6.9 mph - N/A   Clear
6:55 PM 84.2 °F 50.0 °F 30% 29.90 in 10.0 mi East 5.8 mph - N/A   Clear
7:15 PM 82.4 °F 48.2 °F 30% 29.89 in 10.0 mi East 5.8 mph - N/A   Clear
7:35 PM 82.4 °F 50.0 °F 32% 29.89 in 10.0 mi East 4.6 mph - N/A   Clear
7:55 PM 80.6 °F 50.0 °F 34% 29.89 in 10.0 mi East 5.8 mph - N/A   Clear
8:15 PM 77.0 °F 51.8 °F 41% 29.89 in 10.0 mi East 5.8 mph - N/A   Clear
8:35 PM 75.2 °F 53.6 °F 47% 29.90 in 10.0 mi East 5.8 mph - N/A   Clear
8:55 PM 73.4 °F 53.6 °F 50% 29.91 in 10.0 mi East 5.8 mph - N/A   Clear
9:15 PM 71.6 °F 53.6 °F 53% 29.93 in 10.0 mi ENE 3.5 mph - N/A   Clear
9:35 PM 71.6 °F 53.6 °F 53% 29.92 in 10.0 mi Calm Calm - N/A   Clear
9:55 PM 69.8 °F 55.4 °F 60% 29.93 in 10.0 mi Calm Calm - N/A   Clear
10:15 PM 69.8 °F 55.4 °F 60% 29.93 in 10.0 mi Calm Calm - N/A   Clear
10:35 PM 69.8 °F 53.6 °F 56% 29.94 in 10.0 mi Calm Calm - N/A   Clear
10:55 PM 69.8 °F 55.4 °F 60% 29.95 in 10.0 mi Calm Calm - N/A   Clear
11:35 PM 68.0 °F 55.4 °F 64% 29.94 in 10.0 mi SE 5.8 mph - N/A   Clear
11:55 PM 68.0 °F 55.4 °F 64% 29.94 in 10.0 mi SE 3.5 mph - N/A   Clear